Theta_e
326 317 310 311 301 296 292 295 298 299 302 309 313 313 312 314 309 302 324 329 334 333 342 343 348 348 348 347 347 347 348 347 345 343 342 340 339 338 337 337 339 337 338 339 340 340 339 338 336
320 317 311 305 297 291 292 296 298 302 309 315 314 314 313 309 320 323 322 330 333 339 341 341 344 348 346 346 346 347 347 346 344 343 341 340 338 337 337 336 339 337 340 340 339 338 337 337 336
315 312 305 300 294 290 292 299 302 306 310 307 312 317 314 314 321 325 328 335 339 338 339 339 343 347 346 346 347 346 346 345 345 343 341 340 338 337 336 336 335 336 338 338 337 337 336 335 334
312 310 306 299 297 297 297 303 305 302 303 313 312 310 317 323 323 330 337 337 336 336 337 340 344 346 346 345 345 346 344 343 344 344 342 340 338 337 336 335 335 336 336 337 336 335 335 335 333
311 306 299 296 297 297 301 306 303 301 303 306 309 307 310 323 332 335 334 335 333 333 336 338 341 343 343 343 343 343 343 340 340 343 343 341 338 337 335 335 334 335 335 335 334 334 334 334 333
307 303 297 294 297 297 302 303 303 301 307 310 312 310 312 328 331 331 335 332 334 333 335 336 334 337 339 339 341 341 341 341 341 341 340 341 339 337 335 334 334 333 332 331 332 333 333 333 332
304 299 295 295 297 297 302 305 301 303 308 307 316 309 313 326 329 331 333 330 332 333 332 332 332 332 332 335 335 336 338 338 336 334 337 338 340 339 336 335 333 332 330 329 330 331 332 332 332
305 301 296 296 297 297 301 302 304 301 301 317 317 309 311 323 329 330 330 328 329 329 330 329 330 329 328 328 329 331 333 333 333 332 330 330 333 334 333 331 333 332 330 329 330 330 330 330 330
308 298 295 297 296 298 302 300 302 307 309 310 315 316 317 327 329 328 327 323 324 327 327 328 328 326 326 325 324 325 328 329 329 327 325 322 324 326 327 328 332 332 331 329 329 328 327 325 326
304 297 299 304 301 299 302 302 303 305 306 307 311 317 323 326 326 324 322 321 322 321 324 328 326 325 325 327 323 322 324 323 322 322 321 322 322 324 325 324 327 329 328 330 328 327 326 321 317
308 298 304 304 302 302 302 300 302 304 302 307 311 316 322 322 323 323 322 323 322 322 325 327 325 325 324 324 322 322 321 320 320 320 320 320 321 321 321 320 319 318 318 318 319 318 318 317 316
302 307 308 306 301 302 301 302 301 304 305 307 313 321 322 320 321 322 322 323 322 322 324 325 326 324 323 323 321 320 320 319 318 320 320 319 318 317 317 317 316 315 316 315 316 316 316 315 315
308 308 312 308 301 299 301 299 300 303 300 311 320 321 321 321 322 323 324 324 323 322 323 324 325 325 324 322 321 320 320 320 319 319 320 319 317 316 316 315 314 314 314 315 314 314 314 313 314
312 312 310 305 302 301 298 297 298 298 312 316 319 318 320 321 322 320 321 323 322 324 324 324 324 326 324 323 321 321 320 320 320 320 321 321 319 317 315 315 315 315 315 315 315 315 313 313 313
310 307 306 302 302 299 301 296 297 299 314 315 316 316 318 319 320 322 323 323 323 325 325 325 324 325 324 323 323 321 320 321 321 321 321 321 320 317 316 315 316 316 317 316 314 314 313 312 313
306 306 300 303 300 300 300 292 299 300 310 312 314 314 316 317 319 323 324 324 324 323 324 327 327 324 323 322 322 322 321 320 322 321 321 322 321 319 318 318 317 317 316 314 313 313 312 312 312
301 296 298 301 300 300 297 294 301 300 305 307 310 313 316 317 317 320 323 324 324 323 323 325 327 325 323 322 322 322 321 320 321 320 321 322 323 322 320 318 317 317 315 313 314 313 313 312 312
292 295 297 299 300 298 295 295 301 301 297 300 304 307 312 315 318 321 322 324 325 323 323 324 327 328 326 324 323 322 321 321 320 321 321 322 322 321 321 318 318 316 314 313 313 313 313 313 313
297 298 296 299 301 295 295 297 298 302 299 299 299 299 300 309 319 321 322 323 324 322 322 322 323 327 327 324 322 322 322 323 322 322 321 320 321 320 320 319 317 316 315 315 314 313 312 312 311
298 298 297 298 298 295 293 294 299 299 300 300 302 302 303 302 302 308 319 322 323 324 321 323 323 324 327 328 327 326 325 325 325 324 323 321 320 319 320 320 318 316 316 314 314 313 311 312 312
297 297 296 296 295 295 294 292 294 299 300 301 302 302 303 303 304 304 308 319 322 322 321 322 323 323 325 327 327 321 320 318 319 321 323 323 321 320 319 319 320 318 317 317 316 315 314 313 311
295 300 299 295 295 290 295 290 291 297 299 299 304 303 303 303 302 304 303 310 319 321 322 322 323 323 323 326 325 323 323 322 323 323 323 324 322 321 321 320 320 320 319 318 317 317 317 314 313
297 302 299 295 293 290 287 287 293 291 292 299 302 304 305 304 303 303 303 305 314 319 320 321 322 322 323 324 325 323 322 323 323 320 319 321 321 322 322 321 321 320 320 320 319 316 316 316 317
299 298 296 294 292 287 291 291 287 289 292 294 300 302 304 304 303 303 304 303 306 313 318 319 319 320 322 322 323 322 322 322 320 318 319 319 321 321 322 322 322 321 321 320 319 318 317 317 317
298 294 285 285 284 287 292 287 295 293 293 296 298 298 298 298 299 302 302 302 302 306 311 316 317 318 320 320 321 322 322 322 321 320 319 319 319 320 321 321 321 322 322 321 320 319 318 316 316
297 295 287 280 280 283 286 286 293 297 300 297 296 296 295 296 297 298 301 301 301 303 306 313 316 318 319 319 320 321 322 322 322 322 321 320 321 321 322 321 322 322 322 322 321 320 318 318 316
296 292 295 283 273 277 282 286 290 292 293 294 295 294 293 294 295 297 297 297 297 298 300 308 313 316 317 319 319 320 320 320 321 321 322 322 321 322 321 321 321 322 322 322 321 321 320 318 317
297 300 289 286 280 276 280 280 290 289 291 292 295 294 294 292 292 293 293 293 293 293 296 301 308 311 312 314 317 320 320 320 321 321 320 321 321 320 320 320 321 321 322 322 322 322 321 320 318
294 294 292 292 285 282 276 283 288 292 294 295 299 299 295 293 293 293 293 293 293 293 294 295 301 306 308 310 311 313 315 316 318 320 321 320 320 320 321 323 323 322 322 323 323 322 322 320 319
299 296 295 289 283 282 282 287 291 297 296 296 299 296 294 293 293 292 292 292 293 294 294 294 295 295 296 297 298 300 302 303 306 310 313 316 317 321 323 322 323 323 324 323 322 321 321 320 319
Wind_Speed
10 11 2 4 5 5 1 3 2 3 1 3 2 4 5 4 2 4 1 6 10 6 5 5 8 11 11 12 12 12 14 16 17 17 17 18 17 16 16 15 14 15 15 17 16 17 16 17 18
8 6 5 2 6 3 4 2 5 3 5 7 7 3 5 2 2 5 6 6 10 8 5 6 8 11 12 11 12 12 13 14 15 16 16 17 17 15 15 14 14 14 16 16 16 16 15 17 16
7 3 4 4 3 3 4 3 4 3 6 1 4 4 3 3 2 6 7 8 9 9 6 6 9 10 12 12 11 11 13 13 12 13 15 17 15 15 14 14 14 14 15 15 15 15 16 17 16
5 5 5 4 1 3 4 6 5 6 2 5 3 6 2 1 7 7 11 10 9 8 7 7 10 12 14 11 10 11 14 13 11 11 15 17 15 15 14 13 12 13 13 14 14 14 15 15 15
4 2 4 2 3 3 1 6 7 4 2 2 1 4 1 2 8 14 10 9 11 6 6 6 10 10 11 13 14 13 12 11 9 13 15 16 16 15 14 13 12 12 12 11 12 14 13 13 13
4 2 3 1 3 2 1 4 6 4 3 4 5 4 1 5 13 7 10 7 9 10 6 6 7 9 10 11 9 12 12 10 11 13 13 15 14 14 13 12 12 11 11 11 11 13 13 12 13
3 4 4 4 3 2 5 6 4 6 7 4 9 4 2 7 6 10 9 7 6 6 7 6 5 7 9 9 11 12 10 10 12 12 10 9 12 11 11 10 10 10 10 10 10 11 12 12 11
3 4 2 4 4 5 4 6 5 4 2 4 3 6 5 6 9 9 7 6 7 6 6 6 6 4 5 4 7 10 10 9 8 9 9 9 10 11 10 8 7 8 8 9 9 9 10 10 9
3 2 4 5 6 5 5 4 3 2 7 0 1 5 4 14 11 11 9 4 4 3 4 5 5 5 6 4 3 6 8 8 9 7 7 7 4 5 6 6 6 6 6 7 7 7 8 8 7
2 3 8 6 5 6 7 6 9 5 4 1 1 1 6 14 13 13 12 9 7 6 4 4 6 6 5 5 5 3 3 3 5 5 5 4 4 4 4 5 6 6 4 4 4 4 5 5 3
3 5 5 4 4 4 8 5 5 10 4 7 10 7 12 10 10 12 11 12 11 7 5 5 5 6 6 4 5 4 2 2 2 4 3 2 3 2 2 2 1 1 2 1 3 3 3 3 2
6 7 5 3 1 3 6 7 5 7 8 5 9 14 15 12 13 13 12 11 11 10 9 7 6 6 5 3 3 3 4 3 3 5 5 3 2 2 2 1 1 0 0 0 1 1 2 2 1
6 5 5 4 4 1 5 4 5 8 1 5 11 13 17 15 13 10 11 8 8 10 10 10 8 7 5 6 4 4 3 3 3 3 3 3 3 3 2 2 2 2 1 2 2 1 1 2 2
5 9 3 3 5 1 3 2 4 4 5 7 11 14 13 15 15 7 8 11 10 11 12 10 11 9 7 6 7 6 5 5 4 4 5 6 5 4 4 4 4 3 3 2 3 3 3 3 2
6 5 0 4 1 4 4 5 6 3 7 8 8 8 10 10 7 15 14 13 13 10 10 12 12 11 10 8 7 5 5 5 5 5 6 6 6 5 5 4 4 4 4 5 3 3 2 2 2
4 2 3 4 8 4 3 9 9 6 9 10 9 7 9 11 13 12 9 10 10 9 12 11 10 11 11 9 7 5 5 5 5 4 5 7 7 6 5 5 5 4 4 4 3 3 3 3 3
8 10 7 3 8 3 5 7 9 8 9 10 9 10 10 9 9 11 12 12 11 12 11 11 10 11 11 8 6 7 7 6 5 4 6 8 8 8 6 4 4 5 4 4 3 4 3 3 3
8 16 5 9 7 5 5 11 6 4 7 13 10 9 10 11 17 16 14 13 12 10 10 12 11 11 11 7 5 4 4 5 5 7 7 8 8 8 7 4 5 5 4 4 3 5 4 3 3
9 11 13 9 7 6 10 11 11 7 5 10 8 9 12 14 17 10 11 11 10 9 12 13 13 13 10 8 7 6 8 7 6 8 9 8 7 8 8 6 6 5 6 7 6 4 5 4 2
9 14 17 4 4 8 5 14 15 5 7 9 14 13 14 12 10 9 11 12 14 15 15 15 16 14 12 10 9 7 7 6 6 5 8 10 8 8 9 9 7 7 5 6 6 5 3 3 5
10 17 8 7 5 1 2 8 7 8 8 9 11 10 9 15 15 13 12 15 15 16 16 17 16 15 14 14 6 2 2 1 3 6 6 8 9 9 10 9 9 8 8 8 8 8 8 6 4
21 7 7 6 5 7 7 10 7 10 16 9 20 14 17 13 10 11 10 12 16 18 15 16 16 16 14 15 11 13 12 12 10 8 6 8 9 11 11 11 11 10 8 10 10 8 10 7 7
12 9 7 4 4 1 3 4 8 6 11 15 23 20 17 17 13 14 11 12 14 14 15 16 15 14 15 15 15 12 13 10 7 5 7 9 7 11 12 13 12 12 10 11 11 9 11 8 9
7 9 6 3 1 8 12 12 7 9 10 8 17 17 20 16 12 13 12 10 8 8 10 12 14 15 14 15 17 16 16 13 8 7 8 7 8 8 13 13 13 12 11 12 11 11 12 11 10
11 8 4 4 6 15 7 10 20 5 8 11 16 15 12 10 10 13 12 9 8 9 10 10 13 15 14 15 15 18 18 14 15 12 10 10 7 8 11 12 12 12 13 13 11 11 13 12 12
27 25 10 17 7 7 3 13 12 10 11 10 8 9 8 9 8 10 10 9 9 10 9 10 12 15 13 14 16 14 14 11 11 11 9 9 10 10 11 11 13 14 13 13 11 10 11 13 12
19 22 11 8 4 4 6 9 8 8 9 9 10 7 9 9 9 10 8 8 8 8 10 11 11 11 9 13 12 13 12 13 12 13 11 10 11 10 8 11 12 13 13 13 13 11 14 12 13
16 15 8 2 9 7 6 7 16 11 12 10 11 13 10 7 7 7 7 8 6 5 4 6 7 8 6 7 8 9 10 11 11 10 11 12 11 9 9 10 12 13 14 14 15 13 14 15 12
9 16 6 7 6 11 5 13 9 14 16 19 23 20 12 10 9 9 7 5 5 4 4 4 6 7 7 7 7 7 6 6 6 8 9 8 9 8 10 12 13 13 14 15 15 16 16 16 16
28 22 23 14 11 6 3 14 7 21 22 20 24 16 10 9 10 8 8 8 7 6 5 5 5 5 5 5 4 6 4 4 5 6 5 4 6 6 9 10 12 13 14 12 14 16 14 16 17
Wind_Direction
324 320 61 39 54 62 119 201 173 132 65 314 59 131 138 54 128 195 101 150 134 138 138 115 108 118 116 116 118 114 110 107 107 107 107 99 98 91 90 93 88 89 96 95 89 78 76 86 86
318 329 35 67 80 64 273 230 162 166 157 142 90 81 43 82 82 116 113 154 138 133 118 121 125 126 128 120 118 111 110 109 114 114 112 110 102 103 97 93 98 100 98 98 94 81 85 94 91
322 34 65 80 105 165 206 179 172 112 172 173 97 60 110 128 111 142 129 137 132 118 121 137 135 131 131 119 119 122 116 119 119 121 120 112 112 107 99 96 99 103 105 105 94 85 92 94 94
6 3 34 77 271 246 204 165 184 139 128 61 121 72 31 220 159 143 134 131 125 126 130 145 135 130 127 126 128 128 127 127 126 129 130 123 117 109 102 96 95 101 104 105 94 89 93 99 97
25 53 54 60 282 272 216 158 164 140 119 97 94 150 40 19 121 132 134 136 133 127 129 136 134 140 137 126 123 132 112 118 115 113 104 118 116 113 109 104 101 100 100 99 95 87 87 97 96
8 76 67 209 260 320 168 165 158 127 145 161 86 103 142 133 130 140 140 135 145 138 136 134 140 134 131 131 129 118 120 114 119 110 105 114 119 120 117 113 109 111 110 108 104 94 92 107 104
102 78 216 192 236 249 197 151 180 163 143 207 151 96 149 165 159 132 137 128 124 131 130 137 143 136 132 140 126 114 127 131 140 144 115 118 132 123 116 110 108 106 104 103 101 94 92 101 110
94 98 195 235 207 236 175 160 146 146 163 92 157 164 189 177 149 121 121 123 122 136 142 147 141 132 122 131 131 137 138 138 133 126 127 97 97 106 102 88 102 102 98 97 97 92 85 87 120
108 65 216 225 171 230 173 138 146 69 118 109 182 168 225 136 134 134 126 94 103 138 157 150 143 145 133 104 117 117 123 102 107 98 103 73 94 100 99 104 91 94 93 97 90 80 75 66 66
148 175 220 214 200 200 180 160 156 124 139 229 256 342 115 140 152 152 159 164 169 173 182 176 154 150 141 129 98 76 83 112 129 127 128 109 116 120 119 129 130 129 119 106 90 62 28 49 51
233 214 227 249 233 209 165 160 166 125 234 203 193 165 155 159 164 164 174 175 178 175 168 180 171 152 152 147 145 143 140 144 138 143 155 141 112 123 119 125 116 117 109 50 41 13 21 8 82
278 238 255 310 346 146 169 131 174 183 209 219 176 164 157 168 180 177 178 179 178 177 181 172 176 166 162 142 149 153 155 165 168 173 165 149 145 151 165 174 191 136 79 140 8 354 330 328 16
239 274 282 321 335 323 125 199 191 214 34 112 132 159 177 178 188 193 181 180 177 185 186 183 170 175 174 157 157 157 173 171 184 184 186 157 181 199 193 209 197 213 201 214 241 236 249 259 265
303 227 309 347 293 328 156 243 166 205 125 121 154 176 187 189 187 171 181 184 192 192 189 180 182 182 172 178 182 185 179 181 180 185 194 194 185 188 197 200 210 224 216 234 222 217 221 239 251
188 249 88 248 222 251 155 275 227 169 149 157 187 187 195 209 191 205 195 194 190 203 185 188 188 177 178 192 186 186 189 186 190 194 197 195 201 197 195 191 207 216 212 221 211 224 219 232 234
233 235 178 223 157 263 181 255 255 176 158 190 197 205 211 211 211 220 204 205 190 191 192 190 192 189 183 188 187 182 187 191 204 193 192 198 198 198 202 203 214 206 201 199 202 204 220 231 225
180 226 209 283 202 138 176 250 254 172 188 206 202 205 215 229 229 219 208 204 196 194 190 190 188 187 191 186 189 188 189 194 204 194 200 203 201 198 201 209 223 201 205 205 197 212 193 210 231
164 200 205 214 200 205 204 247 271 218 197 214 211 207 215 220 229 222 211 207 205 196 195 196 192 192 187 180 181 193 189 206 195 208 212 207 207 201 197 197 207 197 196 215 206 210 209 209 224
177 192 192 206 184 149 224 244 228 232 217 236 231 222 217 224 231 220 219 207 204 197 199 199 196 195 182 186 189 202 212 209 211 213 210 206 204 198 200 207 203 189 204 210 203 187 210 241 200
190 193 207 197 148 159 221 241 243 201 231 217 225 225 227 228 228 220 205 199 203 204 205 206 204 200 198 200 205 212 207 219 218 198 210 214 207 198 205 210 209 199 205 209 203 182 194 226 179
216 204 187 202 117 326 121 269 236 243 238 243 243 244 230 215 225 223 206 203 199 206 203 205 206 201 200 203 194 139 75 92 192 218 218 217 209 209 208 205 206 201 201 215 209 201 197 219 205
216 157 169 158 147 225 172 268 234 228 232 211 245 225 232 228 220 225 204 203 202 209 204 206 204 201 199 195 193 202 211 220 224 227 226 226 205 215 213 213 211 211 206 217 211 204 212 200 220
225 137 159 140 187 100 212 259 255 154 230 229 235 234 235 226 216 218 214 203 210 208 201 203 202 198 199 197 201 201 213 222 218 197 205 207 206 214 216 214 213 216 214 223 217 206 213 209 219
112 118 62 63 148 242 201 214 225 196 198 228 238 238 237 235 221 218 216 209 200 201 201 197 194 201 194 197 203 203 212 214 208 206 212 211 215 214 221 217 219 221 222 222 216 215 216 216 219
154 185 126 208 215 240 213 195 239 228 229 213 223 230 232 223 217 222 206 195 199 189 190 190 192 204 196 196 200 208 214 210 216 216 218 216 215 219 224 213 218 221 222 224 217 213 218 217 219
190 191 177 199 188 207 125 226 241 220 216 237 250 258 258 239 222 221 213 192 203 205 195 191 196 206 197 201 208 210 216 217 219 223 223 220 222 223 221 212 217 223 224 223 219 219 222 222 223
185 208 201 94 28 64 204 277 294 236 247 252 246 240 255 237 213 218 221 213 211 206 206 197 196 205 189 198 205 210 213 214 216 220 221 225 225 231 220 214 213 220 220 222 220 223 228 226 223
186 177 173 54 167 228 259 277 229 190 217 235 233 233 231 223 202 192 187 176 179 181 191 195 201 201 189 184 196 209 215 218 224 225 225 228 233 225 215 213 216 217 220 220 222 227 230 228 224
168 188 186 154 168 203 212 245 205 206 207 207 213 212 202 198 199 194 193 180 161 138 144 154 174 175 183 193 197 210 220 222 230 230 234 230 234 227 223 226 225 224 224 223 225 229 231 229 230
202 196 195 199 182 217 162 254 202 196 198 203 212 201 186 189 198 191 183 167 163 157 150 173 185 187 197 192 199 227 246 252 249 249 255 264 254 245 241 238 234 234 237 233 229 233 232 233 237